Time,TemperatureF,DewpointF,PressureIn,WindDirection,WindDirectionDegrees,WindSpeedMPH,WindSpeedGustMPH,Humidity,HourlyPrecipIn,Conditions,Clouds,dailyrainin,SoftwareType,DateUTC
2013-05-12 00:01:00,61.3,60.2,29.92,SE,127,0.0,0.0,96,0.00,,BKN090,0.09,VWS V14.01,2013-05-12 04:01:00,
2013-05-12 00:06:00,61.4,60.2,29.92,SE,127,0.0,0.0,96,0.00,,BKN090,0.00,VWS V14.01,2013-05-12 04:06:00,
2013-05-12 00:11:00,61.3,60.2,29.92,SW,221,0.0,1.0,96,0.00,,BKN090,0.00,VWS V14.01,2013-05-12 04:11:00,
2013-05-12 00:16:00,61.2,60.0,29.92,SW,220,0.0,0.0,96,0.00,,BKN090,0.00,VWS V14.01,2013-05-12 04:16:00,
2013-05-12 00:21:00,61.1,60.0,29.92,North,356,0.0,1.0,96,0.00,,BKN090,0.00,VWS V14.01,2013-05-12 04:21:00,
2013-05-12 00:26:00,61.2,60.0,29.92,SSE,167,0.0,0.0,96,0.00,,BKN090,0.00,VWS V14.01,2013-05-12 04:26:00,
2013-05-12 00:31:00,61.2,60.0,29.92,East,91,0.0,2.0,96,0.00,,BKN090,0.00,VWS V14.01,2013-05-12 04:31:00,
2013-05-12 00:36:00,61.2,60.0,29.92,ENE,61,0.0,1.0,96,0.00,,BKN090,0.00,VWS V14.01,2013-05-12 04:36:00,
2013-05-12 00:41:00,61.1,60.0,29.92,ENE,59,0.0,0.0,96,0.00,,BKN090,0.00,VWS V14.01,2013-05-12 04:41:00,
2013-05-12 00:46:00,61.0,59.9,29.93,NNW,334,0.0,2.0,96,0.00,,BKN090,0.00,VWS V14.01,2013-05-12 04:46:00,
2013-05-12 00:51:00,60.8,59.7,29.93,NNE,12,0.0,1.0,96,0.00,,BKN090,0.00,VWS V14.01,2013-05-12 04:51:00,
2013-05-12 00:56:00,60.7,59.3,29.93,West,267,0.0,1.0,95,0.00,,BKN090,0.00,VWS V14.01,2013-05-12 04:56:00,
2013-05-12 01:01:00,60.6,59.2,29.93,WSW,245,0.0,1.0,95,0.00,,BKN090,0.00,VWS V14.01,2013-05-12 05:01:00,
2013-05-12 01:06:00,60.5,59.1,29.93,WNW,287,0.0,3.0,95,0.00,,BKN090,0.00,VWS V14.01,2013-05-12 05:06:00,
2013-05-12 01:11:00,60.5,59.1,29.93,WNW,289,0.0,1.0,95,0.00,,BKN090,0.00,VWS V14.01,2013-05-12 05:11:00,
2013-05-12 01:16:00,60.3,58.9,29.93,NNW,328,0.0,1.0,95,0.00,,BKN090,0.00,VWS V14.01,2013-05-12 05:16:00,
2013-05-12 01:21:00,60.1,58.1,29.93,SW,222,0.0,2.0,93,0.00,,BKN090,0.00,VWS V14.01,2013-05-12 05:21:00,
2013-05-12 01:26:00,60.0,58.0,29.93,North,353,0.0,2.0,93,0.00,,BKN090,0.00,VWS V14.01,2013-05-12 05:26:00,
2013-05-12 01:31:00,59.8,57.8,29.93,North,349,0.0,2.0,93,0.01,,BKN090,0.01,VWS V14.01,2013-05-12 05:31:00,
2013-05-12 01:36:00,59.6,57.6,29.93,NNW,340,0.0,0.0,93,0.01,,BKN090,0.01,VWS V14.01,2013-05-12 05:36:00,
2013-05-12 01:41:00,59.3,57.0,29.93,NNE,12,0.0,0.0,92,0.01,,BKN090,0.01,VWS V14.01,2013-05-12 05:41:00,
2013-05-12 01:46:00,59.1,57.1,29.93,SE,134,0.0,0.0,93,0.01,,BKN090,0.01,VWS V14.01,2013-05-12 05:46:00,
2013-05-12 01:51:00,58.9,56.9,29.93,West,281,0.0,1.0,93,0.01,,BKN090,0.01,VWS V14.01,2013-05-12 05:51:00,
2013-05-12 01:56:00,58.7,56.7,29.93,West,281,0.0,0.0,93,0.01,,BKN090,0.01,VWS V14.01,2013-05-12 05:56:00,
2013-05-12 02:01:00,58.4,56.4,29.93,WNW,288,1.0,1.0,93,0.01,,BKN090,0.01,VWS V14.01,2013-05-12 06:01:00,
2013-05-12 02:06:00,58.3,56.3,29.93,West,277,0.0,1.0,93,0.01,,BKN090,0.01,VWS V14.01,2013-05-12 06:06:00,
2013-05-12 02:11:00,58.1,56.4,29.93,West,276,0.0,0.0,94,0.01,,BKN090,0.01,VWS V14.01,2013-05-12 06:11:00,
2013-05-12 02:16:00,57.4,55.7,29.93,West,277,0.0,0.0,94,0.01,,BKN090,0.01,VWS V14.01,2013-05-12 06:16:00,
2013-05-12 02:21:00,57.4,55.7,29.93,West,277,0.0,0.0,94,0.01,,BKN090,0.01,VWS V14.01,2013-05-12 06:21:00,
2013-05-12 02:26:00,57.4,55.7,29.93,West,277,0.0,0.0,94,0.01,,BKN090,0.01,VWS V14.01,2013-05-12 06:26:00,
2013-05-12 02:31:00,57.4,55.7,29.93,West,277,0.0,0.0,94,0.01,,BKN090,0.01,VWS V14.01,2013-05-12 06:31:00,
2013-05-12 02:36:00,57.4,55.7,29.93,West,277,0.0,0.0,94,0.00,,BKN090,0.01,VWS V14.01,2013-05-12 06:36:00,
2013-05-12 02:41:00,57.4,55.7,29.93,West,277,0.0,0.0,94,0.00,,BKN090,0.01,VWS V14.01,2013-05-12 06:41:00,
2013-05-12 02:46:00,57.4,55.7,29.93,West,277,0.0,0.0,94,0.00,,BKN090,0.01,VWS V14.01,2013-05-12 06:46:00,
2013-05-12 02:51:00,57.4,55.7,29.93,West,277,0.0,0.0,94,0.00,,BKN090,0.01,VWS V14.01,2013-05-12 06:51:00,
2013-05-12 02:56:00,57.4,55.7,29.93,West,277,0.0,0.0,94,0.00,,BKN090,0.01,VWS V14.01,2013-05-12 06:56:00,
2013-05-12 03:01:00,57.4,55.7,29.93,West,277,0.0,0.0,94,0.00,,BKN090,0.01,VWS V14.01,2013-05-12 07:01:00,
2013-05-12 03:06:00,57.4,55.7,29.93,West,277,0.0,0.0,94,0.00,,BKN090,0.01,VWS V14.01,2013-05-12 07:06:00,
2013-05-12 03:11:00,57.4,55.7,29.93,West,277,0.0,0.0,94,0.00,,BKN090,0.01,VWS V14.01,2013-05-12 07:11:00,
2013-05-12 03:16:00,57.4,55.7,29.93,West,277,0.0,0.0,94,0.00,,BKN090,0.01,VWS V14.01,2013-05-12 07:16:00,
2013-05-12 03:21:00,57.4,55.7,29.93,West,277,0.0,0.0,94,0.00,,BKN090,0.01,VWS V14.01,2013-05-12 07:21:00,
2013-05-12 03:26:00,57.4,55.7,29.93,West,277,0.0,0.0,94,0.00,,BKN090,0.01,VWS V14.01,2013-05-12 07:26:00,
2013-05-12 03:31:00,57.4,55.7,29.93,West,277,0.0,0.0,94,0.00,,BKN090,0.01,VWS V14.01,2013-05-12 07:31:00,
2013-05-12 03:36:00,57.4,55.7,29.93,West,277,0.0,0.0,94,0.00,,BKN090,0.01,VWS V14.01,2013-05-12 07:36:00,
2013-05-12 03:41:00,57.4,55.7,29.93,West,277,0.0,0.0,94,0.00,,BKN090,0.01,VWS V14.01,2013-05-12 07:41:00,
2013-05-12 03:46:00,57.4,55.7,29.93,West,277,0.0,0.0,94,0.00,,BKN090,0.01,VWS V14.01,2013-05-12 07:46:00,
2013-05-12 03:51:00,57.4,55.7,29.93,West,277,0.0,0.0,94,0.00,,BKN090,0.01,VWS V14.01,2013-05-12 07:51:00,
2013-05-12 03:56:00,57.4,55.7,29.93,West,277,0.0,0.0,94,0.00,,BKN090,0.01,VWS V14.01,2013-05-12 07:56:00,
2013-05-12 04:01:00,57.4,55.7,29.93,West,277,0.0,0.0,94,0.00,,BKN090,0.01,VWS V14.01,2013-05-12 08:01:00,
2013-05-12 04:06:00,57.4,55.7,29.93,West,277,0.0,0.0,94,0.00,,BKN090,0.01,VWS V14.01,2013-05-12 08:06:00,
2013-05-12 04:11:00,57.4,55.7,29.93,West,277,0.0,0.0,94,0.00,,BKN090,0.01,VWS V14.01,2013-05-12 08:11:00,
2013-05-12 04:16:00,57.4,55.7,29.93,West,277,0.0,0.0,94,0.00,,BKN090,0.01,VWS V14.01,2013-05-12 08:16:00,
2013-05-12 04:21:00,57.4,55.7,29.93,West,277,0.0,0.0,94,0.00,,BKN090,0.01,VWS V14.01,2013-05-12 08:21:00,
2013-05-12 04:26:00,57.4,55.7,29.93,West,277,0.0,0.0,94,0.00,,BKN090,0.01,VWS V14.01,2013-05-12 08:26:00,
2013-05-12 04:31:00,57.4,55.7,29.93,West,277,0.0,0.0,94,0.00,,BKN090,0.01,VWS V14.01,2013-05-12 08:31:00,
2013-05-12 04:36:00,57.4,55.7,29.93,West,277,0.0,0.0,94,0.00,,BKN090,0.01,VWS V14.01,2013-05-12 08:36:00,
2013-05-12 04:41:00,57.4,55.7,29.94,West,277,0.0,0.0,94,0.00,,BKN090,0.01,VWS V14.01,2013-05-12 08:41:00,
2013-05-12 04:46:00,57.4,55.7,29.94,West,277,0.0,0.0,94,0.00,,BKN090,0.01,VWS V14.01,2013-05-12 08:46:00,
2013-05-12 04:51:00,57.4,55.7,29.94,West,277,0.0,0.0,94,0.00,,BKN090,0.01,VWS V14.01,2013-05-12 08:51:00,
2013-05-12 04:56:00,57.4,55.7,29.94,West,277,0.0,0.0,94,0.00,,BKN090,0.01,VWS V14.01,2013-05-12 08:56:00,
2013-05-12 05:01:00,57.4,55.7,29.94,West,277,0.0,0.0,94,0.00,,BKN090,0.01,VWS V14.01,2013-05-12 09:01:00,
2013-05-12 05:06:00,57.4,55.7,29.94,West,277,0.0,0.0,94,0.00,,BKN090,0.01,VWS V14.01,2013-05-12 09:06:00,
2013-05-12 05:11:00,57.4,55.7,29.94,West,277,0.0,0.0,94,0.00,,BKN090,0.01,VWS V14.01,2013-05-12 09:11:00,
2013-05-12 05:16:00,57.4,55.7,29.94,West,277,0.0,0.0,94,0.00,,BKN090,0.01,VWS V14.01,2013-05-12 09:16:00,
2013-05-12 05:21:00,57.4,55.7,29.94,West,277,0.0,0.0,94,0.00,,BKN090,0.01,VWS V14.01,2013-05-12 09:21:00,
2013-05-12 05:26:00,57.4,55.7,29.94,West,277,0.0,0.0,94,0.00,,BKN090,0.01,VWS V14.01,2013-05-12 09:26:00,
2013-05-12 05:31:00,57.4,55.7,29.94,West,277,0.0,0.0,94,0.00,,BKN090,0.01,VWS V14.01,2013-05-12 09:31:00,
2013-05-12 05:36:00,57.4,55.7,29.95,West,277,0.0,0.0,94,0.00,,BKN090,0.01,VWS V14.01,2013-05-12 09:36:00,
2013-05-12 05:41:00,57.4,55.7,29.95,West,277,0.0,0.0,94,0.00,,BKN090,0.01,VWS V14.01,2013-05-12 09:41:00,
2013-05-12 05:46:00,57.4,55.7,29.95,West,277,0.0,0.0,94,0.00,,BKN090,0.01,VWS V14.01,2013-05-12 09:46:00,
2013-05-12 05:51:00,57.4,55.7,29.95,West,277,0.0,0.0,94,0.00,,BKN090,0.01,VWS V14.01,2013-05-12 09:51:00,
2013-05-12 05:56:00,57.4,55.7,29.96,West,277,0.0,0.0,94,0.00,,BKN090,0.01,VWS V14.01,2013-05-12 09:56:00,
2013-05-12 06:01:00,57.4,55.7,29.96,West,277,0.0,0.0,94,0.00,,BKN090,0.01,VWS V14.01,2013-05-12 10:01:00,
2013-05-12 06:06:00,57.4,55.7,29.96,West,277,0.0,0.0,94,0.00,,BKN090,0.01,VWS V14.01,2013-05-12 10:06:00,
2013-05-12 06:11:00,57.4,55.7,29.96,West,277,0.0,0.0,94,0.00,,BKN090,0.01,VWS V14.01,2013-05-12 10:11:00,
2013-05-12 06:16:00,57.4,55.7,29.96,West,277,0.0,0.0,94,0.00,,BKN090,0.01,VWS V14.01,2013-05-12 10:16:00,
2013-05-12 06:21:00,57.4,55.7,29.96,West,277,0.0,0.0,94,0.00,,BKN090,0.01,VWS V14.01,2013-05-12 10:21:00,
2013-05-12 06:26:00,57.4,55.7,29.96,West,277,0.0,0.0,94,0.00,,BKN090,0.01,VWS V14.01,2013-05-12 10:26:00,
2013-05-12 06:31:00,57.4,55.7,29.96,West,277,0.0,0.0,94,0.00,,BKN090,0.01,VWS V14.01,2013-05-12 10:31:00,
2013-05-12 06:36:00,57.4,55.7,29.97,West,277,0.0,0.0,94,0.00,,BKN090,0.01,VWS V14.01,2013-05-12 10:36:00,
2013-05-12 06:41:00,57.4,55.7,29.97,West,277,0.0,0.0,94,0.00,,BKN090,0.01,VWS V14.01,2013-05-12 10:41:00,
2013-05-12 06:46:00,57.4,55.7,29.97,West,277,0.0,0.0,94,0.00,,BKN090,0.01,VWS V14.01,2013-05-12 10:46:00,
2013-05-12 06:51:00,57.4,55.7,29.97,West,277,0.0,0.0,94,0.00,,BKN090,0.01,VWS V14.01,2013-05-12 10:51:00,
2013-05-12 06:56:00,57.4,55.7,29.98,West,277,0.0,0.0,94,0.00,,BKN090,0.01,VWS V14.01,2013-05-12 10:56:00,
2013-05-12 07:01:00,57.4,55.7,29.98,West,277,0.0,0.0,94,0.00,,BKN090,0.01,VWS V14.01,2013-05-12 11:01:00,
2013-05-12 07:06:00,57.4,55.7,29.98,West,277,0.0,0.0,94,0.00,,SKC,0.01,VWS V14.01,2013-05-12 11:06:00,
2013-05-12 07:11:00,57.4,55.7,29.98,West,277,0.0,0.0,94,0.00,,SKC,0.01,VWS V14.01,2013-05-12 11:11:00,
2013-05-12 07:16:00,57.4,55.7,29.99,West,277,0.0,0.0,94,0.00,,SKC,0.01,VWS V14.01,2013-05-12 11:16:00,
2013-05-12 07:21:00,57.4,55.7,29.99,West,277,0.0,0.0,94,0.00,,SKC,0.01,VWS V14.01,2013-05-12 11:21:00,
2013-05-12 07:26:00,57.4,55.7,29.99,West,277,0.0,0.0,94,0.00,,SKC,0.01,VWS V14.01,2013-05-12 11:26:00,
2013-05-12 07:31:00,57.4,55.7,29.99,West,277,0.0,0.0,94,0.00,,SKC,0.01,VWS V14.01,2013-05-12 11:31:00,
2013-05-12 07:36:00,57.4,55.7,29.99,West,277,0.0,0.0,94,0.00,,SKC,0.01,VWS V14.01,2013-05-12 11:36:00,
2013-05-12 07:41:00,57.4,55.7,29.99,West,277,0.0,0.0,94,0.00,,SKC,0.01,VWS V14.01,2013-05-12 11:41:00,
2013-05-12 07:46:00,52.5,52.0,30.00,NW,323,0.0,0.0,98,0.00,,SKC,0.01,VWS V14.01,2013-05-12 11:46:00,
2013-05-12 07:51:00,52.9,52.1,30.00,West,278,1.0,1.0,97,0.00,,SKC,0.01,VWS V14.01,2013-05-12 11:51:00,
2013-05-12 07:56:00,53.4,52.3,30.00,NE,54,0.0,1.0,96,0.00,,SKC,0.01,VWS V14.01,2013-05-12 11:56:00,
2013-05-12 08:01:00,54.1,52.7,30.00,NE,40,0.0,1.0,95,0.00,,SKC,0.01,VWS V14.01,2013-05-12 12:01:00,
2013-05-12 08:06:00,54.8,52.8,30.00,SSW,203,2.0,2.0,93,0.00,,SKC,0.01,VWS V14.01,2013-05-12 12:06:00,
2013-05-12 08:11:00,55.3,52.7,30.00,WNW,302,0.0,1.0,91,0.00,,SKC,0.01,VWS V14.01,2013-05-12 12:11:00,
2013-05-12 08:16:00,55.9,53.0,30.00,ENE,68,0.0,2.0,90,0.00,,SKC,0.01,VWS V14.01,2013-05-12 12:16:00,
2013-05-12 08:21:00,56.7,53.5,30.01,SSW,210,0.0,2.0,89,0.00,,SKC,0.01,VWS V14.01,2013-05-12 12:21:00,
2013-05-12 08:26:00,57.1,53.6,30.01,SE,143,0.0,1.0,88,0.00,,SKC,0.01,VWS V14.01,2013-05-12 12:26:00,
2013-05-12 08:31:00,57.3,53.8,30.01,SW,226,0.0,2.0,88,0.00,,SKC,0.01,VWS V14.01,2013-05-12 12:31:00,
2013-05-12 08:36:00,57.5,53.7,30.00,WSW,255,1.0,1.0,87,0.00,,SKC,0.01,VWS V14.01,2013-05-12 12:36:00,
2013-05-12 08:41:00,57.7,53.9,30.00,SSW,207,1.0,2.0,87,0.00,,SKC,0.01,VWS V14.01,2013-05-12 12:41:00,
2013-05-12 08:46:00,58.2,54.0,30.00,SSW,207,0.0,1.0,86,0.00,,SKC,0.01,VWS V14.01,2013-05-12 12:46:00,
2013-05-12 08:51:00,58.6,54.1,30.01,North,354,0.0,2.0,85,0.00,,SKC,0.01,VWS V14.01,2013-05-12 12:51:00,
2013-05-12 08:56:00,59.1,54.0,30.01,NW,323,0.0,3.0,83,0.00,,SKC,0.01,VWS V14.01,2013-05-12 12:56:00,
2013-05-12 09:01:00,59.5,54.3,30.01,NNE,15,0.0,3.0,83,0.00,,SKC,0.01,VWS V14.01,2013-05-12 13:01:00,
2013-05-12 09:06:00,60.1,55.3,30.01,South,187,0.0,1.0,84,0.00,,FEW020,0.01,VWS V14.01,2013-05-12 13:06:00,
2013-05-12 09:11:00,60.8,55.3,30.01,WNW,301,0.0,1.0,82,0.00,,FEW020,0.01,VWS V14.01,2013-05-12 13:11:00,
2013-05-12 09:16:00,60.7,55.2,30.01,NW,309,0.0,4.0,82,0.00,,FEW020,0.01,VWS V14.01,2013-05-12 13:16:00,
2013-05-12 09:21:00,60.3,54.8,30.01,ESE,117,0.0,3.0,82,0.00,,FEW020,0.01,VWS V14.01,2013-05-12 13:21:00,
2013-05-12 09:26:00,60.3,54.5,30.02,WNW,295,0.0,3.0,81,0.00,,FEW020,0.01,VWS V14.01,2013-05-12 13:26:00,
2013-05-12 09:31:00,60.7,54.2,30.02,North,356,1.0,2.0,79,0.00,,FEW020,0.01,VWS V14.01,2013-05-12 13:31:00,
2013-05-12 09:36:00,60.7,53.5,30.02,ESE,117,1.0,3.0,77,0.00,,FEW020,0.01,VWS V14.01,2013-05-12 13:36:00,
2013-05-12 09:41:00,60.7,53.8,30.02,SW,217,0.0,4.0,78,0.00,,FEW020,0.01,VWS V14.01,2013-05-12 13:41:00,
2013-05-12 09:46:00,60.7,53.8,30.02,NNE,24,3.0,3.0,78,0.00,,FEW020,0.01,VWS V14.01,2013-05-12 13:46:00,
2013-05-12 09:51:00,61.0,54.1,30.02,NNW,340,0.0,2.0,78,0.00,,FEW020,0.01,VWS V14.01,2013-05-12 13:51:00,
2013-05-12 09:56:00,61.4,53.8,30.02,NNW,334,0.0,3.0,76,0.00,,FEW020,0.01,VWS V14.01,2013-05-12 13:56:00,
2013-05-12 10:01:00,62.1,55.2,30.02,West,280,0.0,1.0,78,0.00,,FEW020,0.01,VWS V14.01,2013-05-12 14:01:00,
2013-05-12 10:06:00,62.4,55.5,30.02,WNW,285,2.0,2.0,78,0.00,,FEW050,0.01,VWS V14.01,2013-05-12 14:06:00,
2013-05-12 10:11:00,62.4,53.6,30.03,ENE,69,0.0,2.0,73,0.00,,FEW050,0.01,VWS V14.01,2013-05-12 14:11:00,
2013-05-12 10:16:00,62.6,54.6,30.03,NW,323,0.0,3.0,75,0.00,,FEW050,0.01,VWS V14.01,2013-05-12 14:16:00,
2013-05-12 10:21:00,62.9,54.5,30.03,West,268,1.0,3.0,74,0.00,,FEW050,0.01,VWS V14.01,2013-05-12 14:21:00,
2013-05-12 10:26:00,63.5,54.3,30.03,East,84,1.0,2.0,72,0.00,,FEW050,0.01,VWS V14.01,2013-05-12 14:26:00,
2013-05-12 10:31:00,63.7,52.5,30.03,East,89,1.0,2.0,67,0.00,,FEW050,0.01,VWS V14.01,2013-05-12 14:31:00,
2013-05-12 10:36:00,64.1,54.1,30.03,WSW,245,0.0,1.0,70,0.00,,FEW050,0.01,VWS V14.01,2013-05-12 14:36:00,
2013-05-12 10:41:00,64.0,52.4,30.04,WNW,286,2.0,3.0,66,0.00,,FEW050,0.01,VWS V14.01,2013-05-12 14:41:00,
2013-05-12 10:46:00,64.4,54.0,30.04,WNW,296,1.0,2.0,69,0.00,,FEW050,0.01,VWS V14.01,2013-05-12 14:46:00,
2013-05-12 10:51:00,64.4,51.5,30.04,NW,316,2.0,3.0,63,0.00,,FEW050,0.01,VWS V14.01,2013-05-12 14:51:00,
2013-05-12 10:56:00,64.2,52.2,30.04,West,271,1.0,4.0,65,0.00,,FEW050,0.01,VWS V14.01,2013-05-12 14:56:00,
2013-05-12 11:01:00,64.4,52.8,30.05,WSW,250,0.0,3.0,66,0.00,,FEW050,0.01,VWS V14.01,2013-05-12 15:01:00,
2013-05-12 11:06:00,64.8,52.3,30.05,NE,56,2.0,4.0,64,0.00,,FEW050,0.01,VWS V14.01,2013-05-12 15:06:00,
2013-05-12 11:11:00,64.9,48.4,30.05,North,351,1.0,6.0,55,0.00,,FEW050,0.01,VWS V14.01,2013-05-12 15:11:00,
2013-05-12 11:16:00,65.2,49.6,30.05,SE,134,1.0,2.0,57,0.00,,FEW050,0.01,VWS V14.01,2013-05-12 15:16:00,
2013-05-12 11:21:00,65.5,50.3,30.04,NNW,333,2.0,3.0,58,0.00,,FEW050,0.01,VWS V14.01,2013-05-12 15:21:00,
2013-05-12 11:26:00,65.6,50.4,30.05,NE,43,0.0,4.0,58,0.00,,FEW050,0.01,VWS V14.01,2013-05-12 15:26:00,
2013-05-12 11:31:00,65.9,50.2,30.04,NNW,339,1.0,4.0,57,0.00,,FEW050,0.01,VWS V14.01,2013-05-12 15:31:00,
2013-05-12 11:36:00,65.8,50.6,30.04,West,278,1.0,3.0,58,0.00,,FEW050,0.01,VWS V14.01,2013-05-12 15:36:00,
2013-05-12 11:41:00,66.3,49.7,30.05,West,276,1.0,4.0,55,0.00,,FEW050,0.01,VWS V14.01,2013-05-12 15:41:00,
2013-05-12 11:46:00,66.4,50.2,30.05,NW,324,0.0,2.0,56,0.00,,FEW050,0.01,VWS V14.01,2013-05-12 15:46:00,
2013-05-12 11:51:00,66.8,47.0,30.05,ENE,63,2.0,4.0,49,0.00,,FEW050,0.01,VWS V14.01,2013-05-12 15:51:00,
2013-05-12 11:56:00,66.9,46.6,30.05,NW,315,2.0,2.0,48,0.00,,FEW050,0.01,VWS V14.01,2013-05-12 15:56:00,
2013-05-12 12:01:00,67.7,50.5,30.05,NW,319,1.0,2.0,54,0.00,,FEW050,0.01,VWS V14.01,2013-05-12 16:01:00,
2013-05-12 12:06:00,68.2,48.9,30.05,SW,226,2.0,3.0,50,0.00,,FEW050,0.01,VWS V14.01,2013-05-12 16:06:00,
2013-05-12 12:11:00,68.5,48.1,30.05,NW,325,2.0,4.0,48,0.00,,FEW050,0.01,VWS V14.01,2013-05-12 16:11:00,
2013-05-12 12:16:00,68.1,46.0,30.05,NNW,339,2.0,5.0,45,0.00,,FEW050,0.01,VWS V14.01,2013-05-12 16:16:00,
2013-05-12 12:21:00,67.4,44.8,30.06,ESE,110,1.0,4.0,44,0.00,,FEW050,0.01,VWS V14.01,2013-05-12 16:21:00,
2013-05-12 12:26:00,66.9,44.9,30.06,NW,314,2.0,6.0,45,0.00,,FEW050,0.01,VWS V14.01,2013-05-12 16:26:00,
2013-05-12 12:31:00,66.4,44.4,30.06,ESE,105,2.0,7.0,45,0.00,,FEW050,0.01,VWS V14.01,2013-05-12 16:31:00,
2013-05-12 12:36:00,66.1,45.3,30.05,West,274,2.0,5.0,47,0.00,,FEW050,0.01,VWS V14.01,2013-05-12 16:36:00,
2013-05-12 12:41:00,66.4,45.6,30.05,NNW,343,1.0,5.0,47,0.00,,FEW050,0.01,VWS V14.01,2013-05-12 16:41:00,
2013-05-12 12:46:00,66.8,48.1,30.05,ESE,105,1.0,7.0,51,0.00,,FEW050,0.01,VWS V14.01,2013-05-12 16:46:00,
2013-05-12 12:51:00,67.7,46.8,30.05,WSW,240,2.0,5.0,47,0.00,,FEW050,0.01,VWS V14.01,2013-05-12 16:51:00,
2013-05-12 12:56:00,68.0,45.9,30.05,SW,226,4.0,6.0,45,0.00,,FEW050,0.01,VWS V14.01,2013-05-12 16:56:00,
2013-05-12 13:01:00,67.6,46.7,30.05,SW,228,5.0,7.0,47,0.00,,FEW050,0.01,VWS V14.01,2013-05-12 17:01:00,
2013-05-12 13:06:00,67.7,45.6,30.05,NNE,23,1.0,5.0,45,0.00,,SKC,0.01,VWS V14.01,2013-05-12 17:06:00,
2013-05-12 13:11:00,68.4,48.0,30.05,North,353,4.0,8.0,48,0.00,,SKC,0.01,VWS V14.01,2013-05-12 17:11:00,
2013-05-12 13:16:00,68.3,45.0,30.05,West,265,1.0,6.0,43,0.00,,SKC,0.01,VWS V14.01,2013-05-12 17:16:00,
2013-05-12 13:21:00,68.2,47.2,30.05,NW,325,1.0,9.0,47,0.00,,SKC,0.01,VWS V14.01,2013-05-12 17:21:00,
2013-05-12 13:26:00,68.1,46.0,30.04,SW,226,2.0,6.0,45,0.00,,SKC,0.01,VWS V14.01,2013-05-12 17:26:00,
2013-05-12 13:31:00,68.1,44.8,30.04,SSW,208,3.0,6.0,43,0.00,,SKC,0.01,VWS V14.01,2013-05-12 17:31:00,
2013-05-12 13:36:00,68.1,44.2,30.04,WNW,285,2.0,5.0,42,0.00,,SKC,0.01,VWS V14.01,2013-05-12 17:36:00,
2013-05-12 13:41:00,68.4,46.2,30.04,West,277,1.0,6.0,45,0.00,,SKC,0.01,VWS V14.01,2013-05-12 17:41:00,
2013-05-12 13:46:00,68.3,45.6,30.04,NW,325,2.0,6.0,44,0.00,,SKC,0.01,VWS V14.01,2013-05-12 17:46:00,
2013-05-12 13:51:00,68.4,44.4,30.03,SW,230,2.0,6.0,42,0.00,,SKC,0.01,VWS V14.01,2013-05-12 17:51:00,
2013-05-12 13:56:00,68.6,42.0,30.03,West,271,1.0,8.0,38,0.00,,SKC,0.01,VWS V14.01,2013-05-12 17:56:00,
2013-05-12 14:01:00,68.5,45.1,30.03,West,281,1.0,5.0,43,0.00,,SKC,0.01,VWS V14.01,2013-05-12 18:01:00,
2013-05-12 14:06:00,69.2,46.4,30.03,West,270,1.0,3.0,44,0.00,,SKC,0.01,VWS V14.01,2013-05-12 18:06:00,
2013-05-12 14:10:00,69.7,41.6,30.03,WSW,257,1.0,6.0,36,0.00,,SKC,0.01,VWS V14.01,2013-05-12 18:10:00,
2013-05-12 14:15:00,69.7,44.3,30.02,SE,141,4.0,4.0,40,0.00,,SKC,0.01,VWS V14.01,2013-05-12 18:15:00,
2013-05-12 14:20:00,69.9,41.8,30.02,NE,37,3.0,5.0,36,0.00,,SKC,0.01,VWS V14.01,2013-05-12 18:20:00,
2013-05-12 14:25:00,69.6,40.8,30.03,NW,322,2.0,6.0,35,0.00,,SKC,0.01,VWS V14.01,2013-05-12 18:25:00,
2013-05-12 14:30:00,69.4,42.0,30.02,WSW,246,3.0,4.0,37,0.00,,SKC,0.01,VWS V14.01,2013-05-12 18:30:00,
2013-05-12 14:35:00,69.7,41.6,30.02,WSW,249,1.0,6.0,36,0.00,,SKC,0.01,VWS V14.01,2013-05-12 18:35:00,
2013-05-12 14:40:00,69.9,41.8,30.02,SW,233,3.0,5.0,36,0.00,,SKC,0.01,VWS V14.01,2013-05-12 18:40:00,
2013-05-12 14:45:00,69.6,39.2,30.02,SSW,204,2.0,4.0,33,0.00,,SKC,0.01,VWS V14.01,2013-05-12 18:45:00,
2013-05-12 14:50:00,69.5,39.2,30.02,SW,236,1.0,5.0,33,0.00,,SKC,0.01,VWS V14.01,2013-05-12 18:50:00,
2013-05-12 14:55:00,69.5,39.2,30.02,NNW,333,4.0,7.0,33,0.00,,SKC,0.01,VWS V14.01,2013-05-12 18:55:00,
2013-05-12 15:00:00,69.5,39.2,30.02,WNW,297,1.0,4.0,33,0.00,,SKC,0.01,VWS V14.01,2013-05-12 19:00:00,
2013-05-12 15:05:00,69.5,39.2,30.02,South,174,3.0,5.0,33,0.00,,SKC,0.01,VWS V14.01,2013-05-12 19:05:00,
2013-05-12 15:10:00,69.2,39.7,30.02,NW,304,2.0,5.0,34,0.00,,SKC,0.01,VWS V14.01,2013-05-12 19:10:00,
2013-05-12 15:15:00,69.4,39.8,30.02,North,359,1.0,5.0,34,0.00,,SKC,0.01,VWS V14.01,2013-05-12 19:15:00,
2013-05-12 15:20:00,69.3,39.8,30.02,SW,219,4.0,7.0,34,0.00,,SKC,0.01,VWS V14.01,2013-05-12 19:20:00,
2013-05-12 15:25:00,69.8,40.9,30.02,NNW,331,2.0,5.0,35,0.00,,SKC,0.01,VWS V14.01,2013-05-12 19:25:00,
2013-05-12 15:31:00,70.1,40.5,30.02,ENE,72,1.0,3.0,34,0.00,,SKC,0.01,VWS V14.01,2013-05-12 19:31:00,
2013-05-12 15:36:00,70.6,42.4,30.01,NW,320,1.0,4.0,36,0.00,,SKC,0.01,VWS V14.01,2013-05-12 19:36:00,
2013-05-12 15:41:00,70.4,40.0,30.01,NNE,18,2.0,8.0,33,0.00,,SKC,0.01,VWS V14.01,2013-05-12 19:41:00,
2013-05-12 15:46:00,69.8,38.6,30.01,NW,321,1.0,5.0,32,0.00,,SKC,0.01,VWS V14.01,2013-05-12 19:46:00,
2013-05-12 15:51:00,70.1,41.9,30.01,South,172,2.0,4.0,36,0.00,,SKC,0.01,VWS V14.01,2013-05-12 19:51:00,
2013-05-12 15:56:00,70.5,40.0,30.01,NNW,331,2.0,9.0,33,0.00,,SKC,0.01,VWS V14.01,2013-05-12 19:56:00,
2013-05-12 16:01:00,70.2,39.8,30.01,West,264,2.0,5.0,33,0.00,,SKC,0.01,VWS V14.01,2013-05-12 20:01:00,
2013-05-12 16:06:00,69.8,38.6,30.01,NW,321,1.0,6.0,32,0.00,,FEW150,0.01,VWS V14.01,2013-05-12 20:06:00,
2013-05-12 16:11:00,69.8,38.6,30.01,West,278,1.0,3.0,32,0.00,,FEW150,0.01,VWS V14.01,2013-05-12 20:11:00,
2013-05-12 16:16:00,70.0,38.8,30.01,NNE,12,3.0,6.0,32,0.00,,FEW150,0.01,VWS V14.01,2013-05-12 20:16:00,
2013-05-12 16:21:00,70.0,38.0,30.01,SSW,210,3.0,6.0,31,0.00,,FEW150,0.01,VWS V14.01,2013-05-12 20:21:00,
2013-05-12 16:26:00,69.4,35.8,30.01,NW,313,2.0,6.0,29,0.00,,FEW150,0.01,VWS V14.01,2013-05-12 20:26:00,
2013-05-12 16:31:00,69.3,38.2,30.01,West,275,2.0,10.0,32,0.00,,FEW150,0.01,VWS V14.01,2013-05-12 20:31:00,
2013-05-12 16:36:00,69.8,40.9,30.01,West,269,1.0,5.0,35,0.00,,FEW150,0.01,VWS V14.01,2013-05-12 20:36:00,
2013-05-12 16:41:00,70.2,40.5,30.01,NE,37,2.0,7.0,34,0.00,,FEW150,0.01,VWS V14.01,2013-05-12 20:41:00,
2013-05-12 16:46:00,70.1,39.7,30.02,NNW,341,1.0,7.0,33,0.00,,FEW150,0.01,VWS V14.01,2013-05-12 20:46:00,
2013-05-12 16:51:00,70.1,38.1,30.02,South,181,1.0,4.0,31,0.00,,FEW150,0.01,VWS V14.01,2013-05-12 20:51:00,
2013-05-12 16:56:00,70.1,39.7,30.02,West,263,1.0,4.0,33,0.00,,FEW150,0.01,VWS V14.01,2013-05-12 20:56:00,
2013-05-12 17:01:00,69.8,37.8,30.02,SSW,207,2.0,6.0,31,0.00,,FEW150,0.01,VWS V14.01,2013-05-12 21:01:00,
2013-05-12 17:06:00,69.9,38.7,30.02,SW,221,4.0,4.0,32,0.00,,SKC,0.01,VWS V14.01,2013-05-12 21:06:00,
2013-05-12 17:11:00,70.0,38.0,30.02,West,263,3.0,4.0,31,0.00,,SKC,0.01,VWS V14.01,2013-05-12 21:11:00,
2013-05-12 17:16:00,70.1,39.7,30.03,North,359,2.0,2.0,33,0.00,,SKC,0.01,VWS V14.01,2013-05-12 21:16:00,
2013-05-12 17:21:00,70.1,37.3,30.03,SSW,205,1.0,3.0,30,0.00,,SKC,0.01,VWS V14.01,2013-05-12 21:21:00,
2013-05-12 17:26:00,70.0,36.3,30.03,NW,307,1.0,4.0,29,0.00,,SKC,0.01,VWS V14.01,2013-05-12 21:26:00,
2013-05-12 17:31:00,69.7,39.3,30.03,SW,226,2.0,4.0,33,0.00,,SKC,0.01,VWS V14.01,2013-05-12 21:31:00,
2013-05-12 17:36:00,69.6,38.5,30.03,North,7,2.0,4.0,32,0.00,,SKC,0.01,VWS V14.01,2013-05-12 21:36:00,
2013-05-12 17:41:00,69.3,37.4,30.03,WSW,247,5.0,5.0,31,0.00,,SKC,0.01,VWS V14.01,2013-05-12 21:41:00,
2013-05-12 17:46:00,69.6,41.5,30.03,East,92,2.0,2.0,36,0.00,,SKC,0.01,VWS V14.01,2013-05-12 21:46:00,
2013-05-12 17:51:00,69.5,39.2,30.03,West,278,1.0,4.0,33,0.00,,SKC,0.01,VWS V14.01,2013-05-12 21:51:00,
2013-05-12 17:56:00,69.3,36.6,30.03,SSE,163,3.0,5.0,30,0.00,,SKC,0.01,VWS V14.01,2013-05-12 21:56:00,
2013-05-12 18:01:00,69.1,39.6,30.03,WNW,300,1.0,3.0,34,0.00,,SKC,0.01,VWS V14.01,2013-05-12 22:01:00,
2013-05-12 18:06:00,69.7,38.5,30.03,North,351,0.0,2.0,32,0.00,,SKC,0.01,VWS V14.01,2013-05-12 22:06:00,
2013-05-12 18:11:00,69.6,37.7,30.03,NNE,32,2.0,4.0,31,0.00,,SKC,0.01,VWS V14.01,2013-05-12 22:11:00,
2013-05-12 18:16:00,68.9,37.8,30.03,NW,316,3.0,4.0,32,0.00,,SKC,0.01,VWS V14.01,2013-05-12 22:16:00,
2013-05-12 18:21:00,67.9,37.8,30.03,WNW,294,3.0,6.0,33,0.00,,SKC,0.01,VWS V14.01,2013-05-12 22:21:00,
2013-05-12 18:26:00,67.5,37.4,30.03,SSE,160,1.0,3.0,33,0.00,,SKC,0.01,VWS V14.01,2013-05-12 22:26:00,
2013-05-12 18:31:00,67.2,37.2,30.04,ENE,76,0.0,2.0,33,0.00,,SKC,0.01,VWS V14.01,2013-05-12 22:31:00,
2013-05-12 18:36:00,67.0,39.2,30.03,West,275,0.0,2.0,36,0.00,,SKC,0.01,VWS V14.01,2013-05-12 22:36:00,
2013-05-12 18:41:00,66.6,36.6,30.03,NNE,20,1.0,4.0,33,0.00,,SKC,0.01,VWS V14.01,2013-05-12 22:41:00,
2013-05-12 18:46:00,66.5,39.5,30.03,NE,56,0.0,2.0,37,0.00,,SKC,0.01,VWS V14.01,2013-05-12 22:46:00,
2013-05-12 18:51:00,66.5,38.0,30.03,West,264,3.0,5.0,35,0.00,,SKC,0.01,VWS V14.01,2013-05-12 22:51:00,
2013-05-12 18:56:00,65.9,38.2,30.03,NW,321,1.0,3.0,36,0.00,,SKC,0.01,VWS V14.01,2013-05-12 22:56:00,
2013-05-12 19:01:00,65.4,37.1,30.03,NW,321,2.0,3.0,35,0.00,,SKC,0.01,VWS V14.01,2013-05-12 23:01:00,
2013-05-12 19:06:00,65.0,37.4,30.03,North,1,0.0,3.0,36,0.00,,SKC,0.01,VWS V14.01,2013-05-12 23:06:00,
2013-05-12 19:11:00,64.7,36.4,30.03,SW,231,0.0,4.0,35,0.00,,SKC,0.01,VWS V14.01,2013-05-12 23:11:00,
2013-05-12 19:16:00,64.4,36.9,30.03,North,352,1.0,3.0,36,0.00,,SKC,0.01,VWS V14.01,2013-05-12 23:16:00,
2013-05-12 19:21:00,64.1,37.3,30.03,NW,319,0.0,2.0,37,0.00,,SKC,0.01,VWS V14.01,2013-05-12 23:21:00,
2013-05-12 19:26:00,63.9,35.7,30.03,WNW,295,1.0,3.0,35,0.00,,SKC,0.01,VWS V14.01,2013-05-12 23:26:00,
2013-05-12 19:31:00,63.6,34.7,30.03,NW,311,2.0,6.0,34,0.00,,SKC,0.01,VWS V14.01,2013-05-12 23:31:00,
2013-05-12 19:36:00,63.4,36.7,30.03,WSW,245,0.0,2.0,37,0.00,,SKC,0.01,VWS V14.01,2013-05-12 23:36:00,
2013-05-12 19:41:00,63.1,35.7,30.04,NW,325,0.0,3.0,36,0.00,,SKC,0.01,VWS V14.01,2013-05-12 23:41:00,
2013-05-12 19:46:00,62.9,34.8,30.04,WNW,285,1.0,2.0,35,0.00,,SKC,0.01,VWS V14.01,2013-05-12 23:46:00,
2013-05-12 19:51:00,62.7,36.8,30.04,East,98,0.0,3.0,38,0.00,,SKC,0.01,VWS V14.01,2013-05-12 23:51:00,
2013-05-12 19:56:00,62.5,37.2,30.05,North,8,0.0,2.0,39,0.00,,SKC,0.01,VWS V14.01,2013-05-12 23:56:00,
2013-05-12 20:01:00,62.1,36.9,30.05,North,356,0.0,1.0,39,0.00,,SKC,0.01,VWS V14.01,2013-05-13 00:01:00,
2013-05-12 20:06:00,61.8,37.2,30.05,West,270,0.0,1.0,40,0.00,,SKC,0.01,VWS V14.01,2013-05-13 00:06:00,
2013-05-12 20:11:00,61.4,36.9,30.05,West,270,0.0,0.0,40,0.00,,SKC,0.01,VWS V14.01,2013-05-13 00:11:00,
2013-05-12 20:16:00,61.2,36.7,30.05,East,79,0.0,0.0,40,0.00,,SKC,0.01,VWS V14.01,2013-05-13 00:16:00,
2013-05-12 20:21:00,60.8,36.3,30.05,ENE,67,0.0,0.0,40,0.00,,SKC,0.01,VWS V14.01,2013-05-13 00:21:00,
2013-05-12 20:26:00,60.4,37.2,30.05,ENE,67,0.0,0.0,42,0.00,,SKC,0.01,VWS V14.01,2013-05-13 00:26:00,
2013-05-12 20:31:00,60.0,38.0,30.05,ENE,67,0.0,0.0,44,0.00,,SKC,0.01,VWS V14.01,2013-05-13 00:31:00,
2013-05-12 20:36:00,59.5,37.6,30.05,ENE,67,0.0,0.0,44,0.00,,SKC,0.01,VWS V14.01,2013-05-13 00:36:00,
2013-05-12 20:41:00,59.0,38.8,30.04,ENE,65,0.0,1.0,47,0.00,,SKC,0.01,VWS V14.01,2013-05-13 00:41:00,
2013-05-12 20:46:00,58.6,39.0,30.04,ENE,65,0.0,0.0,48,0.00,,SKC,0.01,VWS V14.01,2013-05-13 00:46:00,
2013-05-12 20:51:00,58.2,39.2,30.04,ENE,65,0.0,0.0,49,0.00,,SKC,0.01,VWS V14.01,2013-05-13 00:51:00,
2013-05-12 20:56:00,57.9,38.3,30.04,ENE,61,0.0,1.0,48,0.00,,SKC,0.01,VWS V14.01,2013-05-13 00:56:00,
2013-05-12 21:01:00,57.7,39.2,30.04,ENE,60,0.0,0.0,50,0.00,,SKC,0.01,VWS V14.01,2013-05-13 01:01:00,
2013-05-12 21:06:00,57.3,38.3,30.04,ENE,61,0.0,0.0,49,0.00,,SKC,0.01,VWS V14.01,2013-05-13 01:06:00,
2013-05-12 21:11:00,56.9,38.5,30.04,ENE,61,0.0,0.0,50,0.00,,SKC,0.01,VWS V14.01,2013-05-13 01:11:00,
2013-05-12 21:16:00,56.5,36.5,30.04,ENE,60,0.0,0.0,47,0.00,,SKC,0.01,VWS V14.01,2013-05-13 01:16:00,
2013-05-12 21:21:00,56.2,37.3,30.05,ENE,60,0.0,0.0,49,0.00,,SKC,0.01,VWS V14.01,2013-05-13 01:21:00,
2013-05-12 21:26:00,55.9,38.0,30.05,ENE,61,0.0,0.0,51,0.00,,SKC,0.01,VWS V14.01,2013-05-13 01:26:00,
2013-05-12 21:31:00,55.4,38.1,30.05,ENE,60,0.0,0.0,52,0.00,,SKC,0.01,VWS V14.01,2013-05-13 01:31:00,
2013-05-12 21:36:00,55.2,37.9,30.05,ENE,61,0.0,1.0,52,0.00,,SKC,0.01,VWS V14.01,2013-05-13 01:36:00,
2013-05-12 21:41:00,55.0,38.7,30.05,ENE,61,0.0,0.0,54,0.00,,SKC,0.01,VWS V14.01,2013-05-13 01:41:00,
2013-05-12 21:46:00,54.8,38.5,30.06,ENE,61,0.0,0.0,54,0.00,,SKC,0.01,VWS V14.01,2013-05-13 01:46:00,
2013-05-12 21:51:00,54.6,39.2,30.06,ENE,61,0.0,0.0,56,0.00,,SKC,0.01,VWS V14.01,2013-05-13 01:51:00,
2013-05-12 21:56:00,54.2,37.9,30.07,ENE,61,0.0,0.0,54,0.00,,SKC,0.01,VWS V14.01,2013-05-13 01:56:00,
2013-05-12 22:01:00,54.0,37.8,30.07,ENE,61,0.0,0.0,54,0.00,,SKC,0.01,VWS V14.01,2013-05-13 02:01:00,
2013-05-12 22:06:00,53.7,38.4,30.07,ENE,61,0.0,0.0,56,0.00,,SKC,0.01,VWS V14.01,2013-05-13 02:06:00,
2013-05-12 22:11:00,53.6,39.2,30.07,ENE,60,0.0,0.0,58,0.00,,SKC,0.01,VWS V14.01,2013-05-13 02:11:00,
2013-05-12 22:16:00,53.3,39.3,30.08,ENE,60,0.0,0.0,59,0.00,,SKC,0.01,VWS V14.01,2013-05-13 02:16:00,
2013-05-12 22:21:00,53.0,39.1,30.08,ENE,70,0.0,1.0,59,0.00,,SKC,0.01,VWS V14.01,2013-05-13 02:21:00,
2013-05-12 22:26:00,52.8,38.0,30.08,ESE,110,0.0,1.0,57,0.00,,SKC,0.01,VWS V14.01,2013-05-13 02:26:00,
2013-05-12 22:31:00,52.7,38.3,30.08,ESE,110,0.0,0.0,58,0.00,,SKC,0.01,VWS V14.01,2013-05-13 02:31:00,
2013-05-12 22:36:00,52.7,39.2,30.08,ESE,110,0.0,0.0,60,0.00,,SKC,0.01,VWS V14.01,2013-05-13 02:36:00,
2013-05-12 22:41:00,52.7,38.3,30.09,ESE,110,0.0,0.0,58,0.00,,SKC,0.01,VWS V14.01,2013-05-13 02:41:00,
2013-05-12 22:46:00,52.9,38.5,30.08,ESE,110,0.0,0.0,58,0.00,,SKC,0.01,VWS V14.01,2013-05-13 02:46:00,
2013-05-12 22:51:00,52.9,39.0,30.09,WNW,288,0.0,1.0,59,0.00,,SKC,0.01,VWS V14.01,2013-05-13 02:51:00,
2013-05-12 22:56:00,52.7,38.8,30.09,WNW,288,0.0,0.0,59,0.00,,SKC,0.01,VWS V14.01,2013-05-13 02:56:00,
2013-05-12 23:01:00,52.5,39.0,30.09,WNW,288,0.0,0.0,60,0.00,,SKC,0.01,VWS V14.01,2013-05-13 03:01:00,
2013-05-12 23:06:00,52.1,38.7,30.09,WNW,288,0.0,0.0,60,0.00,,SKC,0.01,VWS V14.01,2013-05-13 03:06:00,
2013-05-12 23:11:00,51.9,38.5,30.08,WNW,288,0.0,0.0,60,0.00,,SKC,0.01,VWS V14.01,2013-05-13 03:11:00,
2013-05-12 23:16:00,51.9,38.0,30.09,WNW,288,0.0,0.0,59,0.00,,SKC,0.01,VWS V14.01,2013-05-13 03:16:00,
2013-05-12 23:21:00,52.0,38.6,30.09,WNW,288,0.0,0.0,60,0.00,,SKC,0.01,VWS V14.01,2013-05-13 03:21:00,
2013-05-12 23:26:00,52.0,39.0,30.09,WNW,288,0.0,0.0,61,0.00,,SKC,0.01,VWS V14.01,2013-05-13 03:26:00,
2013-05-12 23:31:00,51.8,39.6,30.09,WNW,288,0.0,0.0,63,0.00,,SKC,0.01,VWS V14.01,2013-05-13 03:31:00,
2013-05-12 23:36:00,51.5,38.5,30.09,WNW,288,0.0,0.0,61,0.00,,SKC,0.01,VWS V14.01,2013-05-13 03:36:00,
2013-05-12 23:40:00,51.3,40.0,30.09,West,281,0.0,1.0,65,0.00,,SKC,0.01,VWS V14.01,2013-05-13 03:40:00,
2013-05-12 23:45:00,51.3,40.3,30.09,WNW,282,0.0,0.0,66,0.00,,SKC,0.01,VWS V14.01,2013-05-13 03:45:00,
2013-05-12 23:50:00,51.2,40.2,30.09,West,281,0.0,0.0,66,0.00,,SKC,0.01,VWS V14.01,2013-05-13 03:50:00,
2013-05-12 23:55:00,51.2,39.5,30.09,West,281,0.0,0.0,64,0.00,,SKC,0.01,VWS V14.01,2013-05-13 03:55:00,